Flag Weather past 2 weeks in Milwaukee, Wisconsin, U.S.A.

Now
23 °F

Mostly cloudy.


Feels Like: 12 °F
Forecast: 11 / 23 °F
Wind: 12 mph from Northwest

Location: Milwaukee / Timmerman

Current Time: Nov 27, 2014 at 5:03:28 AM

Latest Report: Nov 27, 2014 at 4:15 AM


Visibility: 10 mi

Pressure: 30.24 "Hg

Humidity: 86%

Dew point: 19 °F

Location of MilwaukeeLocation

Historic Weather in Milwaukee — Graph

°F

Milwaukee temperature yesterday

Maximum temperature yesterday: 28 °F (at 12:45 PM)
Minimum temperature yesterday: 12 °F (at 3:55 AM)
Average temperature yesterday: 21 °F

Past Weeks' High & Low Weather Summary

 TemperatureHumidityPressure
High50 °F (Nov 23, 12:15 AM)100% (Nov 24, 12:35 AM)30.43 "Hg (Nov 24, 12:35 AM)
Low9 °F (Nov 17, 6:45 AM)26% (Nov 21, 3:45 PM)29.04 "Hg (Nov 24, 4:35 AM)
Average24 °F73%30.00 "Hg
* Reported Nov 12 3:15 AM — Nov 27 3:55 AM, Milwaukee, Weather by CustomWeather, © 2014

Note: Actual official high and low records may vary slightly from our data, if they occured in-between our weather recording intervals... More about our weather records

Advertising

Milwaukee weather history for previous 24 hours

 ConditionsComfort  
Time TempWeatherWind HumidityBarometerVisibility
3:55 AM
Nov 27
23 °FMostly cloudy.10 mph86%30.23 "Hg10 mi
3:15 AM23 °FLight snow. Overcast.8 mph86%30.23 "Hg4 mi
2:55 AM23 °FLight snow. Mostly cloudy.8 mph86%30.23 "Hg5 mi
2:15 AM23 °FMostly cloudy.8 mph86%30.22 "Hg7 mi
1:55 AM23 °FOvercast.9 mph86%30.22 "Hg7 mi
1:35 AM23 °FOvercast.7 mph86%30.22 "Hg7 mi
1:15 AM23 °FMostly cloudy.8 mph86%30.21 "Hg7 mi
12:55 AM21 °FMostly cloudy.6 mph86%30.21 "Hg7 mi
12:35 AM21 °FOvercast.6 mph86%30.21 "Hg7 mi
12:15 AM21 °FPartly cloudy.5 mph80%30.20 "Hg7 mi
11:55 PM
Nov 26
19 °FIce fog.6 mph86%30.20 "Hg5 mi
11:15 PM21 °FIce fog.7 mph86%30.20 "Hg5 mi
10:55 PM21 °FPassing clouds.8 mph80%30.20 "Hg5 mi
10:35 PM21 °FIce fog.6 mph86%30.19 "Hg5 mi
10:15 PM21 °FClear.6 mph86%30.19 "Hg7 mi
9:55 PM21 °FClear.7 mph86%30.19 "Hg7 mi
9:15 PM21 °FClear.8 mph86%30.18 "Hg7 mi
8:55 PM23 °FPassing clouds.8 mph80%30.18 "Hg7 mi
8:15 PM25 °FOvercast.10 mph80%30.17 "Hg7 mi
7:45 PM25 °FPassing clouds.12 mph74%30.17 "Hg7 mi
6:45 PM27 °FOvercast.22 mph74%30.16 "Hg7 mi
4:45 PM28 °FPassing clouds.6 mph69%30.14 "Hg10 mi
3:45 PM28 °FMore clouds than sun.No wind69%30.14 "Hg10 mi
2:45 PM28 °FOvercast.No wind69%30.13 "Hg10 mi
1:45 PM28 °FOvercast.No wind69%30.12 "Hg10 mi
12:45 PM28 °FSunny.No wind69%30.13 "Hg10 mi
10:45 AM27 °FSunny.No wind69%30.15 "Hg10 mi
9:45 AM21 °FSunny.No wind86%30.16 "Hg5 mi
7:45 AM16 °FOvercast.No wind86%30.16 "Hg5 mi
6:45 AM14 °FPassing clouds.No wind92%30.16 "Hg5 mi
5:35 AM14 °FIce fog.No wind92%30.16 "Hg5 mi
5:15 AM14 °FIce fog.No wind92%30.17 "Hg4 mi
Weather by CustomWeather, © 2014

See weather overviewHow to use our weather pages